TimeCDT,TemperatureF,Dew PointF,Humidity,Sea Level PressureIn,VisibilityMPH,Wind Direction,Wind SpeedMPH,Gust SpeedMPH,PrecipitationIn,Events,Conditions,WindDirDegrees,DateUTC
12:15 AM,75.2,50.0,41,29.96,10.0,SSE,6.9,-,N/A,,Unknown,150,2013-09-09 05:15:00
12:35 AM,75.2,51.8,44,29.96,10.0,SE,6.9,-,N/A,,Unknown,140,2013-09-09 05:35:00
12:55 AM,75.2,51.8,44,29.96,10.0,SSE,6.9,-,N/A,,Unknown,160,2013-09-09 05:55:00
1:15 AM,73.4,51.8,47,29.96,10.0,SSE,6.9,-,N/A,,Unknown,150,2013-09-09 06:15:00
1:35 AM,73.4,51.8,47,29.96,10.0,SSE,6.9,-,N/A,,Unknown,150,2013-09-09 06:35:00
1:55 AM,73.4,53.6,50,29.96,10.0,SE,5.8,-,N/A,,Unknown,140,2013-09-09 06:55:00
2:15 AM,71.6,53.6,53,29.96,10.0,SE,4.6,-,N/A,,Unknown,140,2013-09-09 07:15:00
2:35 AM,71.6,53.6,53,29.96,10.0,SE,6.9,-,N/A,,Unknown,140,2013-09-09 07:35:00
2:55 AM,71.6,53.6,53,29.96,10.0,SSE,5.8,-,N/A,,Unknown,150,2013-09-09 07:55:00
3:15 AM,71.6,53.6,53,29.96,10.0,SSE,6.9,-,N/A,,Unknown,160,2013-09-09 08:15:00
3:35 AM,71.6,53.6,53,29.96,10.0,SSE,8.1,-,N/A,,Unknown,160,2013-09-09 08:35:00
3:55 AM,71.6,53.6,53,29.96,10.0,SSE,6.9,-,N/A,,Unknown,160,2013-09-09 08:55:00
4:15 AM,71.6,55.4,57,29.96,10.0,SSE,8.1,-,N/A,,Unknown,160,2013-09-09 09:15:00
4:35 AM,71.6,55.4,57,29.96,10.0,SSE,8.1,-,N/A,,Unknown,150,2013-09-09 09:35:00
4:55 AM,71.6,55.4,57,29.96,10.0,SSE,8.1,-,N/A,,Unknown,160,2013-09-09 09:55:00
5:15 AM,71.6,55.4,57,29.96,10.0,SSE,8.1,-,N/A,,Unknown,160,2013-09-09 10:15:00
5:35 AM,69.8,55.4,60,29.96,10.0,SSE,8.1,-,N/A,,Unknown,150,2013-09-09 10:35:00
5:55 AM,69.8,55.4,60,29.97,10.0,SSE,10.4,-,N/A,,Unknown,150,2013-09-09 10:55:00
6:15 AM,69.8,55.4,60,29.97,10.0,SE,8.1,-,N/A,,Unknown,140,2013-09-09 11:15:00
6:35 AM,69.8,55.4,60,29.97,10.0,SSE,8.1,-,N/A,,Unknown,150,2013-09-09 11:35:00
6:55 AM,69.8,55.4,60,29.98,10.0,SSE,8.1,-,N/A,,Unknown,150,2013-09-09 11:55:00
7:15 AM,69.8,55.4,60,29.98,10.0,SSE,6.9,-,N/A,,Unknown,150,2013-09-09 12:15:00
7:35 AM,69.8,57.2,64,29.99,10.0,SSE,8.1,-,N/A,,Unknown,150,2013-09-09 12:35:00
7:55 AM,69.8,57.2,64,30.00,10.0,SSE,6.9,-,N/A,,Unknown,150,2013-09-09 12:55:00
8:15 AM,71.6,57.2,60,30.00,10.0,SSE,6.9,-,N/A,,Unknown,150,2013-09-09 13:15:00
8:35 AM,71.6,59.0,64,30.00,10.0,SSE,6.9,-,N/A,,Unknown,160,2013-09-09 13:35:00
8:55 AM,73.4,59.0,61,30.00,10.0,SSE,8.1,-,N/A,,Unknown,160,2013-09-09 13:55:00
9:15 AM,75.2,59.0,57,30.00,10.0,South,10.4,-,N/A,,Unknown,170,2013-09-09 14:15:00
9:35 AM,77.0,59.0,54,30.01,10.0,South,9.2,-,N/A,,Unknown,180,2013-09-09 14:35:00
9:55 AM,78.8,59.0,51,30.01,10.0,South,8.1,-,N/A,,Unknown,180,2013-09-09 14:55:00
10:15 AM,80.6,59.0,48,30.01,10.0,SSW,10.4,-,N/A,,Unknown,200,2013-09-09 15:15:00
10:35 AM,82.4,57.2,42,30.01,10.0,SSW,10.4,-,N/A,,Unknown,210,2013-09-09 15:35:00
10:55 AM,86.0,57.2,37,30.01,10.0,SW,13.8,20.7,N/A,,Unknown,220,2013-09-09 15:55:00
11:15 AM,86.0,55.4,35,30.01,10.0,South,13.8,23.0,N/A,,Unknown,180,2013-09-09 16:15:00
11:35 AM,87.8,53.6,31,30.00,10.0,SSW,18.4,23.0,N/A,,Unknown,210,2013-09-09 16:35:00
11:55 AM,87.8,51.8,29,30.00,10.0,SSW,20.7,25.3,N/A,,Unknown,200,2013-09-09 16:55:00
12:15 PM,87.8,51.8,29,30.00,10.0,SSW,17.3,24.2,N/A,,Unknown,200,2013-09-09 17:15:00
12:35 PM,89.6,51.8,27,30.00,10.0,South,18.4,21.9,N/A,,Unknown,190,2013-09-09 17:35:00
12:55 PM,89.6,51.8,27,30.00,10.0,South,17.3,23.0,N/A,,Unknown,190,2013-09-09 17:55:00
1:15 PM,89.6,50.0,26,29.99,10.0,South,19.6,25.3,N/A,,Unknown,190,2013-09-09 18:15:00
1:35 PM,89.6,50.0,26,29.99,10.0,South,19.6,26.5,N/A,,Unknown,190,2013-09-09 18:35:00
1:55 PM,91.4,48.2,23,29.98,10.0,South,16.1,27.6,N/A,,Unknown,190,2013-09-09 18:55:00
2:15 PM,91.4,46.4,21,29.97,10.0,South,19.6,27.6,N/A,,Unknown,170,2013-09-09 19:15:00
2:35 PM,91.4,46.4,21,29.97,10.0,SSE,17.3,-,N/A,,Unknown,160,2013-09-09 19:35:00
2:55 PM,91.4,44.6,20,29.96,10.0,South,13.8,27.6,N/A,,Unknown,180,2013-09-09 19:55:00
3:15 PM,91.4,42.8,18,29.95,10.0,South,15.0,27.6,N/A,,Unknown,190,2013-09-09 20:15:00
3:35 PM,91.4,44.6,20,29.95,10.0,South,17.3,27.6,N/A,,Unknown,180,2013-09-09 20:35:00
3:55 PM,93.2,44.6,19,29.94,10.0,South,17.3,27.6,N/A,,Unknown,170,2013-09-09 20:55:00
4:15 PM,93.2,44.6,19,29.93,10.0,South,18.4,26.5,N/A,,Unknown,170,2013-09-09 21:15:00
4:35 PM,91.4,44.6,20,29.93,10.0,SSE,19.6,25.3,N/A,,Unknown,160,2013-09-09 21:35:00
4:55 PM,91.4,44.6,20,29.92,10.0,South,13.8,23.0,N/A,,Unknown,170,2013-09-09 21:55:00
5:15 PM,91.4,44.6,20,29.92,10.0,South,15.0,25.3,N/A,,Unknown,180,2013-09-09 22:15:00
5:35 PM,91.4,46.4,21,29.92,10.0,South,18.4,23.0,N/A,,Unknown,170,2013-09-09 22:35:00
5:55 PM,91.4,44.6,20,29.91,10.0,South,17.3,23.0,N/A,,Unknown,180,2013-09-09 22:55:00
6:15 PM,91.4,44.6,20,29.91,10.0,SSW,12.7,-,N/A,,Unknown,200,2013-09-09 23:15:00
6:35 PM,91.4,46.4,21,29.91,10.0,South,16.1,-,N/A,,Unknown,170,2013-09-09 23:35:00
6:55 PM,89.6,46.4,22,29.91,10.0,SSE,16.1,20.7,N/A,,Unknown,160,2013-09-09 23:55:00
7:15 PM,89.6,46.4,22,29.91,10.0,SSE,16.1,20.7,N/A,,Unknown,160,2013-09-10 00:15:00
7:35 PM,87.8,46.4,24,29.91,10.0,SSE,17.3,25.3,N/A,,Unknown,160,2013-09-10 00:35:00
7:55 PM,87.8,48.2,25,29.91,10.0,SSE,13.8,17.3,N/A,,Unknown,160,2013-09-10 00:55:00
8:15 PM,86.0,48.2,27,29.92,10.0,SSE,11.5,-,N/A,,Unknown,150,2013-09-10 01:15:00
8:35 PM,84.2,50.0,30,29.92,10.0,SSE,11.5,-,N/A,,Unknown,150,2013-09-10 01:35:00
8:55 PM,82.4,50.0,32,29.93,10.0,SSE,11.5,-,N/A,,Unknown,150,2013-09-10 01:55:00
9:15 PM,82.4,50.0,32,29.94,10.0,SSE,10.4,-,N/A,,Unknown,150,2013-09-10 02:15:00
9:35 PM,80.6,50.0,34,29.95,10.0,SSE,9.2,-,N/A,,Unknown,150,2013-09-10 02:35:00
9:55 PM,80.6,51.8,37,29.95,10.0,SSE,10.4,-,N/A,,Unknown,150,2013-09-10 02:55:00
10:15 PM,78.8,51.8,39,29.96,10.0,SSE,8.1,-,N/A,,Unknown,150,2013-09-10 03:15:00
10:35 PM,78.8,50.0,36,29.97,10.0,SSE,9.2,-,N/A,,Unknown,150,2013-09-10 03:35:00
10:55 PM,78.8,50.0,36,29.97,10.0,SSE,8.1,-,N/A,,Unknown,150,2013-09-10 03:55:00
11:15 PM,77.0,51.8,41,29.97,10.0,SSE,8.1,-,N/A,,Unknown,160,2013-09-10 04:15:00
11:35 PM,77.0,51.8,41,29.98,10.0,SSE,8.1,-,N/A,,Unknown,160,2013-09-10 04:35:00
11:55 PM,77.0,51.8,41,29.98,10.0,South,6.9,-,N/A,,Unknown,170,2013-09-10 04:55:00